FENGYUN 1C DEB, 45527

Orbit data source: Space-Track

FENGYUN 1C DEB, 45527 is space debris in SSO originally from a launch on Mon, 10 May 1999 UTC launched from the Taiyaun Space Center, China (TSC). Fengyun 1C debris stems from the Chinese weather satellite Fengyun-1C, which was intentionally destroyed by a Chinese anti-satellite missile in 2007. This event dramatically increased the amount of space debris, with thousands of trackable fragments posing hazards to satellites and human spaceflight. The Fengyun 1C debris cloud has become a focal point in discussions about space sustainability and the need for international regulations to prevent the creation of new debris.

Loading next visibility...
Identifier
45527, 1999-025EYS
Orbit
SSO
Country
Flag of CNCN / PRC
Related business
Manufacturer
Unknown
Mission
Spacecraft
Bus & Motor
Unknown
Mass
Unknown
Launch date (UTC)
1999-05-10 (27 years ago)
Launch vehicle
Unknown
Launch site
Taiyaun Space Center, China (TSC)
Object type
Payload
Rocket body
Debris
Shape & HBR
Unknown shape, 0.1 m
Radar Cross Section
Small (<0.1 m²)

Expand to show TLE details & history
Last TLE update: 23 hours ago

TLE from 23 hours ago
0 FENGYUN 1C DEB
1 45527U 99025EYS 26169.16444831  .00002075  00000-0  87877-3 0  9997
2 45527  98.7246 239.8492 0053629  45.2554 315.2971 14.25752551422494
Epoch: 2026-06-18T03:56Z
TLE epoch observation values (Epoch: 2026-06-18T03:56:48.333Z)
Latitude
-0.00014°
Longitude
-85.76387°
Altitude
781.599 km
Speed
7.477 km/s
True Right ascension
15h 59m 23s
True Declination
0° 00' 00"
Sunlit
Object was in full shadow at epoch
Visualization orbit readout
Latitude
Unknown
Longitude
Unknown
Altitude
Unknown
Speed
Unknown
Apparent Right ascension
Unknown
Apparent Declination
Unknown
Sunlit
N/A
Visualization observer readout
Local Sidereal Time
13:19:14
Azimuth
Unknown
Elevation
Unknown
Doppler factor
Unknown
Orbital elements
Apogee altitude
841.627 km
Perigee altitude
764.603 km
Semi-major axis
7,181.252 km
Eccentricity
0.00536
Inclination
98.7246°
RAAN
239.8492°
Arg. of periapsis
45.2554°
True anomaly
314.86275°
Mean anomaly
315.2971°
Eccentric anomaly
315.08013°
Mean motion
3.56651 °/min
Orbital period
100.94 mins
BSTAR
0.00087877
Loading maneuver chart data...
Computing Atmospheric mass density...

Documentation

Showing up to 5 results
|